sat.trackr.live / text

‹ back to catalog

PANDORE

NORAD 63244 · 2025-052AL

PAYLOAD ACTIVE UNKNOWN

§ Identity

Operator
Country
FR
Launch date
2025-03-15
Launch site
AFWTR
Launch vehicle
Mass (kg)
RCS (m²)

External: N2YO · Heavens-Above · Gunter

§ Orbital elements

Epoch: 2026-05-25T03:04:15.864960Z

Period
96.33 min
Inclination
97.6930°
Eccentricity
0.0003101
Mean motion
14.94878807 rev/d
Perigee alt
580.6 km
Apogee alt
584.9 km
Semi-major
6,960.9 km
B*
2.0654e-4
RAAN
36.9270°
Arg perigee
279.0479°
Mean anomaly
81.0391°
Rev number
6,516

§ Raw data

PANDORE1 63244U 25052AL  26145.12796140  .00002195  00000+0  20654-3 0  99972 63244  97.6930  36.9270 0003101 279.0479  81.0391 14.94878807 65161

JSON: /api/v1/satellites/63244 · /tle

For live sub-satellite position, see the globe view (requires WebGL).

§ Visibility from observer

Set your observer location to see the next 7 days of passes ≥ 10°. The values pass through the URL so the page stays shareable.

No JS? Fill the form by hand. The geolocation button needs JavaScript.